Find Kosmos-717

NORAD ID: 7684 Int'l Des: 1975-016 Owner: GUKOSR Country: SU operational
LEOCIRCULAR

Live Position

Loading 3D Globe...

About Kosmos-717

Description loading...

Upcoming Passes

Passes for default location (London). Set your location on the main map for personalized predictions.

Altitude History

Loading altitude history...

Two-Line Element Set

1 7684U 75016G 26109.49172691 -.00000029 00000-0 -10466-3 0 9994
2 7684 73.9999 110.2111 0034756 108.5539 11.3061 12.39834059314561
Epoch: Apr 19, 2026 • Age: 9 hours

Current Status

Altitude 1495.2 km
Velocity 7.13 km/s
Sub-Earth Point 70.72°N, 2.59°W
Type other

Most Searched